TimePDT,TemperatureF,Dew PointF,Humidity,Sea Level PressureIn,VisibilityMPH,Wind Direction,Wind SpeedMPH,Gust SpeedMPH,PrecipitationIn,Events,Conditions,WindDirDegrees,DateUTC
12:53 AM,55.0,25.0,31,29.99,10.0,SW,10.4,-,N/A,,Clear,230,2014-03-25 07:53:00
1:53 AM,53.1,28.0,38,29.99,10.0,South,6.9,-,N/A,,Clear,180,2014-03-25 08:53:00
2:53 AM,50.0,28.9,44,29.97,10.0,SSW,4.6,-,N/A,,Clear,200,2014-03-25 09:53:00
3:53 AM,54.0,21.9,29,29.96,10.0,SSW,9.2,-,N/A,,Clear,210,2014-03-25 10:53:00
4:53 AM,48.9,21.0,33,29.96,10.0,Calm,Calm,-,N/A,,Clear,0,2014-03-25 11:53:00
5:53 AM,52.0,21.0,30,29.95,10.0,South,5.8,-,N/A,,Clear,190,2014-03-25 12:53:00
6:53 AM,52.0,24.1,34,29.94,10.0,South,5.8,-,N/A,,Clear,190,2014-03-25 13:53:00
7:53 AM,53.1,28.9,40,29.95,10.0,South,10.4,-,N/A,,Clear,180,2014-03-25 14:53:00
8:53 AM,55.0,36.0,49,29.98,10.0,WSW,5.8,-,N/A,,Clear,240,2014-03-25 15:53:00
9:53 AM,57.9,46.0,65,29.98,10.0,SW,10.4,-,N/A,,Clear,220,2014-03-25 16:53:00
10:53 AM,63.0,48.0,58,29.98,10.0,WSW,13.8,-,N/A,,Clear,240,2014-03-25 17:53:00
11:53 AM,59.0,50.0,72,29.97,10.0,SSW,8.1,-,N/A,,Partly Cloudy,200,2014-03-25 18:53:00
12:53 PM,55.0,53.1,93,29.98,7.0,South,8.1,-,0.01,Rain,Light Rain,190,2014-03-25 19:53:00
1:53 PM,61.0,53.1,75,29.94,10.0,SW,12.7,21.9,0.00,,Mostly Cloudy,220,2014-03-25 20:53:00
2:31 PM,63.0,52.0,67,29.92,10.0,WSW,13.8,18.4,N/A,,Overcast,250,2014-03-25 21:31:00
2:53 PM,61.0,51.1,70,29.92,10.0,SW,10.4,-,N/A,,Overcast,220,2014-03-25 21:53:00
3:25 PM,61.0,51.1,70,29.90,10.0,WSW,9.2,-,N/A,,Overcast,250,2014-03-25 22:25:00
3:53 PM,62.1,51.1,67,29.88,10.0,SW,5.8,-,N/A,,Scattered Clouds,220,2014-03-25 22:53:00
4:53 PM,63.0,48.0,58,29.87,10.0,SW,11.5,-,N/A,,Scattered Clouds,230,2014-03-25 23:53:00
5:53 PM,61.0,46.9,60,29.87,10.0,WSW,9.2,-,N/A,,Partly Cloudy,240,2014-03-26 00:53:00
6:53 PM,59.0,46.9,64,29.86,10.0,WSW,11.5,-,N/A,,Clear,240,2014-03-26 01:53:00
7:53 PM,57.0,46.0,67,29.85,10.0,WSW,13.8,-,N/A,,Clear,250,2014-03-26 02:53:00
8:53 PM,55.0,46.9,74,29.85,10.0,SW,8.1,-,N/A,,Clear,230,2014-03-26 03:53:00
9:53 PM,54.0,48.0,80,29.85,10.0,SW,9.2,-,N/A,,Clear,230,2014-03-26 04:53:00
10:53 PM,54.0,46.9,77,29.86,10.0,WSW,9.2,-,N/A,,Clear,250,2014-03-26 05:53:00
11:53 PM,53.1,45.0,74,29.86,10.0,North,-9999.0,-,N/A,,Clear,0,2014-03-26 06:53:00